Tracking 27380 objects as of 6-Jun-2023
HD Live streaming from Space Station
objects crossing your sky now

OPS 4682 DEB

Track OPS 4682 DEB now!
10-day predictions


NORAD ID: 26733
Int'l Code: 1965-027BG
Perigee: 1,268.6 km
Apogee: 1,317.5 km
Inclination: 90.2 °
Period: 111.3 minutes
Semi major axis: 7664 km
RCS: 0.0115 m2 (small)
Launch date: April 3, 1965
Source: United States (US)
Launch site: AIR FORCE WESTERN TEST RANGE (AFWTR)

Note: This is SATELLITE DEBRIS
Your satellite tracking list
Your tracking list is empty




NASA's NSSDC Master Catalog

Two Line Element Set (TLE):
1 26733U 65027BG  23157.00051428  .00000307  00000-0  10837-2 0  9990
2 26733  90.2490 341.7280 0031922 242.4740 272.8299 12.93936873 54719
Source of the keplerian elements: AFSPC